Flag for Belarus Weather past 2 weeks in Minsk, Belarus

Now
52 °F

Passing clouds.


Feels Like: 50 °F
Forecast: 46 / 66 °F
Wind: 6 mph from North

Location: Minsk

Current Time: Sep 3, 2014 at 5:22:00 AM

Latest Report: Sep 3, 2014 at 5:00 AM


Visibility: 6 mi

Pressure: 30.30 "Hg

Humidity: 100%

Dew point: 52 °F

Location of MinskLocation

Historic Weather in Minsk — Graph

°F

Minsk temperature yesterday

Maximum temperature yesterday: 64 °F (at 5:00 PM)
Minimum temperature yesterday: 46 °F (at 12:00 AM)
Average temperature yesterday: 56 °F

Past Weeks' High & Low Weather Summary

 TemperatureHumidityPressure
High75 °F (Aug 19, 4:00 PM)100% (Aug 20, 3:30 AM)30.30 "Hg (Aug 20, 3:30 AM)
Low43 °F (Aug 23, 6:00 AM)38% (Aug 19, 2:00 PM)29.45 "Hg (Aug 25, 7:00 AM)
Average57 °F81%29.91 "Hg
* Reported Aug 19 4:00 AM — Sep 3 4:00 AM, Minsk, Weather by CustomWeather, © 2014

Note: Actual official high and low records may vary slightly from our data, if they occured in-between our weather recording intervals... More about our weather records

Advertising

Minsk weather history for previous 24 hours

 ConditionsComfort  
Time TempWeatherWind HumidityBarometerVisibility
4:00 AM
Sep 3
52 °FPassing clouds.6 mph100%30.30 "HgN/A
3:30 AM52 °FPassing clouds.8 mph100%30.30 "HgN/A
3:00 AM52 °FPassing clouds.6 mph100%30.30 "HgN/A
2:30 AM52 °FPassing clouds.6 mph100%30.27 "HgN/A
2:00 AM52 °FPassing clouds.6 mph100%30.27 "HgN/A
1:30 AM52 °FPassing clouds.6 mph94%30.27 "HgN/A
1:00 AM52 °FLight fog.6 mph100%30.27 "HgN/A
12:30 AM52 °FLight fog.6 mph100%30.27 "HgN/A
12:00 AM52 °FClear.6 mph100%30.27 "Hg10 mi
11:30 PM
Sep 2
52 °FClear.6 mph100%30.24 "Hg10 mi
11:00 PM54 °FClear.6 mph94%30.24 "Hg10 mi
10:30 PM54 °FClear.3 mph94%30.24 "Hg10 mi
10:00 PM54 °FClear.6 mph94%30.24 "Hg10 mi
9:30 PM55 °FClear.6 mph88%30.24 "Hg10 mi
9:00 PM55 °FClear.3 mph88%30.21 "Hg10 mi
8:30 PM57 °FScattered clouds.6 mph82%30.21 "HgN/A
8:00 PM59 °FScattered clouds.8 mph77%30.21 "HgN/A
7:30 PM59 °FScattered clouds.8 mph72%30.18 "HgN/A
7:00 PM61 °FBroken clouds.8 mph68%30.18 "HgN/A
6:30 PM61 °FBroken clouds.8 mph68%30.18 "HgN/A
6:00 PM63 °FPartly sunny.8 mph68%30.18 "HgN/A
5:30 PM61 °FPartly sunny.8 mph68%30.18 "HgN/A
5:00 PM64 °FPartly sunny.8 mph60%30.18 "HgN/A
4:30 PM63 °FPartly sunny.8 mph59%30.18 "HgN/A
4:00 PM63 °FPartly sunny.10 mph64%30.18 "HgN/A
3:30 PM63 °FPartly sunny.10 mph64%30.18 "HgN/A
3:00 PM63 °FPartly sunny.8 mph64%30.18 "HgN/A
2:30 PM63 °FPartly sunny.8 mph64%30.15 "HgN/A
2:00 PM61 °FPartly sunny.6 mph68%30.15 "HgN/A
1:30 PM61 °FPartly sunny.10 mph68%30.15 "HgN/A
1:00 PM61 °FPartly sunny.8 mph68%30.15 "HgN/A
12:30 PM59 °FPartly sunny.6 mph72%30.15 "HgN/A
12:00 PM59 °FPartly sunny.6 mph72%30.15 "HgN/A
11:30 AM57 °FPartly sunny.6 mph77%30.15 "HgN/A
11:00 AM57 °FPartly sunny.6 mph77%30.15 "HgN/A
10:30 AM57 °FPartly sunny.6 mph77%30.12 "HgN/A
10:00 AM55 °FOvercast.6 mph82%30.12 "HgN/A
9:30 AM54 °FOvercast.8 mph88%30.12 "HgN/A
9:00 AM54 °FMostly cloudy.10 mph88%30.12 "HgN/A
8:30 AM54 °FMostly cloudy.8 mph88%30.12 "HgN/A
8:00 AM54 °FBroken clouds.6 mph88%30.09 "HgN/A
7:30 AM52 °FPartly sunny.6 mph94%30.09 "HgN/A
7:00 AM52 °FMostly cloudy.3 mph94%30.09 "HgN/A
6:30 AM52 °FMostly cloudy.3 mph94%30.09 "HgN/A
5:30 AM52 °FMostly cloudy.3 mph94%30.09 "HgN/A
5:00 AM52 °FLow clouds.3 mph94%30.09 "HgN/A
Weather by CustomWeather, © 2014

See weather overviewHow to use our weather pages